T 2006 May 3.4927 TT MPC q 2.339799 (2000.0) P Q n 0.1486364 Peri. 31.3475 -0.8155405 +0.5784970 a 3.529550 Node 184.0973 -0.5653700 -0.8021271 e 0.337083 Incl. 12.3862 -0.1234927 -0.1480991 P 6.63 From 45 observations 2006 Mar. 26-May 31.
m1 = 15.0 + 5 log d + 10.0 log r